When you browse on this site, cookies collect data to enhance your experience and personalize the content and advertising you see.
Visit our Privacy Policy to learn more. By continuing to use the site, you agree to this use of cookies and data.
  • In Austria
  • List of Countries
  • For 7 days
  • Water Temperature
  • Weather Map
  • News
  • Weather Widgets
  • user-avatar
    Login

    Hourly Weather Gold Coast

    Today, 16 December, Monday

    Time Temperature Precipitation Wind Pressure Humidity
    00:00 +23°C° 0 mm 4 mps 752 mmHg 94%
    01:00 +23°C° 0 mm 4 mps 752 mmHg 95%
    02:00 +23°C° 0 mm 4 mps 752 mmHg 95%
    03:00 +22°C° 0 mm 3 mps 752 mmHg 96%
    04:00 +22°C° 0 mm 3 mps 751 mmHg 97%
    05:00 +25°C° 0 mm 3 mps 752 mmHg 89%
    06:00 +27°C° 0 mm 3 mps 752 mmHg 81%
    07:00 +28°C° 0 mm 3 mps 752 mmHg 72%
    08:00 +33°C° 0 mm 3 mps 752 mmHg 56%
    09:00 +36°C° 0 mm 3 mps 752 mmHg 40%
    10:00 +39°C° 0 mm 3 mps 751 mmHg 24%
    11:00 +40°C° 0 mm 3 mps 751 mmHg 22%
    12:00 +42°C° 0 mm 3 mps 751 mmHg 21%
    13:00 +42°C° 0 mm 3 mps 751 mmHg 19%
    14:00 +39°C° 0 mm 5 mps 751 mmHg 28%
    15:00 +35°C° 0 mm 7 mps 751 mmHg 36%
    16:00 +32°C° 0 mm 9 mps 751 mmHg 45%
    17:00 +29°C° 0 mm 9 mps 752 mmHg 53%
    18:00 +27°C° 0 mm 8 mps 754 mmHg 61%
    19:00 +24°C° 0 mm 8 mps 755 mmHg 69%
    20:00 +23°C° 0 mm 8 mps 756 mmHg 72%
    21:00 +22°C° 0 mm 7 mps 756 mmHg 75%
    22:00 +21°C° 0 mm 7 mps 757 mmHg 78%
    23:00 +21°C° 0 mm 6 mps 757 mmHg 78%

    Tomorrow, 17 December, Tuesday

    Time Temperature Precipitation Wind Pressure Humidity
    00:00 +21°C° 0 mm 6 mps 757 mmHg 78%
    01:00 +21°C° 0 mm 6 mps 757 mmHg 77%
    02:00 +20°C° 0 mm 6 mps 757 mmHg 79%
    03:00 +20°C° 0 mm 6 mps 757 mmHg 80%
    04:00 +20°C° 0 mm 6 mps 757 mmHg 81%
    05:00 +21°C° 0 mm 6 mps 757 mmHg 75%
    06:00 +22°C° 0 mm 6 mps 758 mmHg 70%
    07:00 +23°C° 0 mm 6 mps 758 mmHg 64%
    08:00 +24°C° 0 mm 6 mps 758 mmHg 59%
    09:00 +27°C° 0 mm 6 mps 758 mmHg 54%
    10:00 +28°C° 0 mm 7 mps 759 mmHg 48%
    11:00 +28°C° 0 mm 7 mps 758 mmHg 47%
    12:00 +29°C° 0 mm 7 mps 758 mmHg 46%
    13:00 +29°C° 0 mm 8 mps 758 mmHg 45%
    14:00 +28°C° 0 mm 8 mps 758 mmHg 48%
    15:00 +27°C° 0 mm 7 mps 758 mmHg 51%
    16:00 +26°C° 0 mm 7 mps 758 mmHg 54%
    17:00 +24°C° 0 mm 7 mps 758 mmHg 60%
    18:00 +22°C° 0 mm 6 mps 759 mmHg 67%
    19:00 +21°C° 0 mm 6 mps 760 mmHg 73%
    20:00 +20°C° 0 mm 6 mps 760 mmHg 77%
    21:00 +19°C° 0 mm 5 mps 760 mmHg 81%
    22:00 +19°C° 0 mm 4 mps 761 mmHg 85%
    23:00 +18°C° 0 mm 4 mps 760 mmHg 86%

    Day after tomorrow, 18 December, Wednesday

    Time Temperature Precipitation Wind Pressure Humidity
    00:00 +18°C° 0 mm 4 mps 760 mmHg 87%
    01:00 +18°C° 0 mm 4 mps 759 mmHg 88%
    02:00 +18°C° 0 mm 4 mps 759 mmHg 88%
    03:00 +17°C° 0 mm 4 mps 759 mmHg 89%
    04:00 +17°C° 0 mm 4 mps 759 mmHg 89%
    05:00 +19°C° 0 mm 4 mps 760 mmHg 80%
    06:00 +21°C° 0 mm 4 mps 760 mmHg 71%
    07:00 +22°C° 0 mm 5 mps 761 mmHg 62%
    08:00 +25°C° 0 mm 5 mps 761 mmHg 57%
    09:00 +26°C° 0 mm 5 mps 761 mmHg 51%
    10:00 +28°C° 0 mm 5 mps 761 mmHg 45%
    11:00 +28°C° 0 mm 5 mps 761 mmHg 44%
    12:00 +28°C° 0 mm 5 mps 761 mmHg 43%
    13:00 +29°C° 0 mm 5 mps 760 mmHg 42%
    14:00 +28°C° 0 mm 5 mps 760 mmHg 44%
    15:00 +27°C° 0 mm 5 mps 760 mmHg 46%
    16:00 +27°C° 0 mm 5 mps 760 mmHg 48%
    17:00 +25°C° 0 mm 4 mps 760 mmHg 56%
    18:00 +22°C° 0 mm 4 mps 761 mmHg 63%
    19:00 +20°C° 0 mm 4 mps 761 mmHg 71%
    20:00 +20°C° 0 mm 3 mps 761 mmHg 75%
    21:00 +19°C° 0 mm 3 mps 762 mmHg 78%
    22:00 +18°C° 0 mm 3 mps 762 mmHg 82%
    23:00 +18°C° 0 mm 3 mps 761 mmHg 83%

    19 December, Thursday

    Time Temperature Precipitation Wind Pressure Humidity
    00:00 +18°C° 0 mm 2 mps 761 mmHg 84%
    01:00 +17°C° 0 mm 2 mps 761 mmHg 85%
    02:00 +17°C° 0 mm 2 mps 760 mmHg 85%
    03:00 +17°C° 0 mm 2 mps 760 mmHg 86%
    04:00 +17°C° 0 mm 2 mps 760 mmHg 87%
    05:00 +19°C° 0 mm 2 mps 760 mmHg 78%
    06:00 +22°C° 0 mm 1 mps 761 mmHg 70%
    07:00 +24°C° 0 mm 1 mps 761 mmHg 61%
    08:00 +26°C° 0 mm 2 mps 761 mmHg 56%
    09:00 +27°C° 0 mm 2 mps 761 mmHg 50%
    10:00 +29°C° 0 mm 2 mps 761 mmHg 45%
    11:00 +29°C° 0 mm 2 mps 760 mmHg 44%
    12:00 +30°C° 0 mm 3 mps 760 mmHg 43%
    13:00 +30°C° 0 mm 3 mps 759 mmHg 42%
    14:00 +30°C° 0 mm 3 mps 759 mmHg 45%
    15:00 +29°C° 0 mm 3 mps 759 mmHg 47%
    16:00 +28°C° 0 mm 3 mps 758 mmHg 50%
    17:00 +26°C° 0 mm 3 mps 759 mmHg 59%
    18:00 +24°C° 0 mm 3 mps 759 mmHg 67%
    19:00 +21°C° 0 mm 2 mps 759 mmHg 76%
    20:00 +20°C° 0 mm 2 mps 760 mmHg 80%
    21:00 +19°C° 0 mm 2 mps 760 mmHg 84%
    22:00 +19°C° 0 mm 2 mps 760 mmHg 87%
    23:00 +18°C° 0 mm 2 mps 760 mmHg 89%

    20 December, Friday

    Time Temperature Precipitation Wind Pressure Humidity
    00:00 +18°C° 0 mm 2 mps 759 mmHg 90%
    01:00 +18°C° 0 mm 2 mps 759 mmHg 91%
    02:00 +18°C° 0 mm 2 mps 759 mmHg 92%
    03:00 +17°C° 0 mm 2 mps 758 mmHg 92%
    04:00 +17°C° 0 mm 2 mps 758 mmHg 93%
    05:00 +20°C° 0 mm 2 mps 758 mmHg 83%
    06:00 +23°C° 0 mm 2 mps 759 mmHg 73%
    07:00 +25°C° 0 mm 2 mps 759 mmHg 62%
    08:00 +28°C° 0 mm 2 mps 759 mmHg 52%
    09:00 +31°C° 0 mm 2 mps 759 mmHg 42%
    10:00 +36°C° 0 mm 2 mps 759 mmHg 31%
    11:00 +36°C° 0 mm 3 mps 758 mmHg 32%
    12:00 +36°C° 0 mm 4 mps 757 mmHg 33%
    13:00 +36°C° 0 mm 4 mps 757 mmHg 34%
    14:00 +35°C° 0 mm 4 mps 756 mmHg 38%
    15:00 +34°C° 0 mm 4 mps 756 mmHg 42%
    16:00 +32°C° 0 mm 4 mps 756 mmHg 47%
    17:00 +29°C° 0 mm 3 mps 756 mmHg 58%
    18:00 +26°C° 0 mm 3 mps 757 mmHg 69%
    19:00 +22°C° 0 mm 3 mps 757 mmHg 80%
    20:00 +22°C° 0 mm 3 mps 757 mmHg 83%
    21:00 +21°C° 0 mm 3 mps 758 mmHg 87%
    22:00 +20°C° 0 mm 3 mps 758 mmHg 91%
    23:00 +20°C° 0 mm 3 mps 757 mmHg 92%

    21 December, Saturday

    Time Temperature Precipitation Wind Pressure Humidity
    00:00 +20°C° 0 mm 3 mps 757 mmHg 92%
    01:00 +20°C° 0 mm 3 mps 756 mmHg 93%
    02:00 +19°C° 0 mm 3 mps 756 mmHg 92%
    03:00 +19°C° 0 mm 4 mps 756 mmHg 92%
    04:00 +19°C° 0 mm 4 mps 756 mmHg 91%
    05:00 +21°C° 0 mm 4 mps 757 mmHg 80%
    06:00 +23°C° 0 mm 4 mps 757 mmHg 70%
    07:00 +27°C° 0 mm 4 mps 757 mmHg 59%
    08:00 +30°C° 0 mm 4 mps 757 mmHg 48%
    09:00 +34°C° 0 mm 4 mps 757 mmHg 38%
    10:00 +37°C° 0 mm 4 mps 757 mmHg 27%
    11:00 +39°C° 0 mm 5 mps 756 mmHg 26%
    12:00 +40°C° 0 mm 5 mps 756 mmHg 26%
    13:00 +41°C° 0 mm 6 mps 755 mmHg 25%
    14:00 +40°C° 0 mm 6 mps 755 mmHg 29%
    15:00 +38°C° 0 mm 6 mps 754 mmHg 33%
    16:00 +36°C° 0 mm 6 mps 754 mmHg 37%
    17:00 +33°C° 0 mm 5 mps 754 mmHg 48%
    18:00 +29°C° 0 mm 5 mps 755 mmHg 59%
    19:00 +26°C° 0 mm 4 mps 755 mmHg 70%
    20:00 +25°C° 0 mm 4 mps 755 mmHg 76%
    21:00 +23°C° 0 mm 4 mps 755 mmHg 81%
    22:00 +22°C° 0 mm 4 mps 756 mmHg 87%
    23:00 +22°C° 0 mm 4 mps 755 mmHg 88%
    Show more